This demonstration page uses our WeatherBlox Daily Observations layout. Learn more.

Left ArrowRight Arrow

Hourly Observations for November 17, 2015

Temp ( °F °C ) Dew Point ( °F °C ) Humidity (%) Winds ( mph kmh ) Pressure ( in mb ) Visibility ( mi km ) Precip ( " mm )
12:53 am 00:53 Clear 28 -2.2 19 -7.2 69 69 SW 18 30 29.88 1012 10 16 N/A
1:53 am 01:53 Clear 29 -1.7 18 -7.8 63 63 SW 20 31 29.85 1011 10 16 N/A
2:53 am 02:53 Clear 32 undefined 16 -8.9 52 52 SW 24 39 29.80 1009 10 16 N/A
3:53 am 03:53 Clear 33 0.6 14 -10 45 45 SW 24 39 29.77 1008 10 16 N/A
4:53 am 04:53 Clear 35 1.7 12 -11.1 38 38 SSW 21 33 29.76 1008 10 16 N/A
5:53 am 05:53 Clear 35 1.7 12 -11.1 38 38 SW 17 28 29.75 1007 10 16 N/A
6:53 am 06:53 Clear 35 1.7 12 -11.1 38 38 SW 18 30 29.75 1007 10 16 N/A
7:53 am 07:53 Partly Cloudy 37 2.8 14 -10 39 39 SW 22 35 29.74 1007 10 16 N/A
8:53 am 08:53 Sunny 38 3.3 16 -8.9 41 41 SSW 24 39 29.74 1007 10 16 N/A
9:53 am 09:53 Sunny 41 5 20 -6.7 43 43 SW 17 28 29.73 1007 10 16 N/A
10:53 am 10:53 Sunny 46 7.8 23 -5 40 40 SW 28 44 29.66 1004 10 16 N/A
11:53 am 11:53 Sunny 51 10.6 25 -3.9 36 36 WSW 33 54 29.61 1003 10 16 N/A
12:53 pm 12:53 Sunny 54 12.2 27 -2.8 35 35 SW 39 63 29.55 1001 10 16 N/A
1:53 pm 13:53 Sunny 53 11.7 28 -2.2 38 38 SW 31 50 29.51 999 10 16 N/A
2:53 pm 14:53 Sunny 52 11.1 30 -1.1 43 43 SW 23 37 29.47 998 10 16 N/A
3:53 pm 15:53 Sunny 52 11.1 30 -1.1 43 43 SSW 32 52 29.40 996 10 16 N/A
4:53 pm 16:53 Clear 52 11.1 29 -1.7 41 41 SSW 36 57 29.36 994 10 16 N/A
5:53 pm 17:53 Clear 53 11.7 29 -1.7 40 40 SSW 39 63 29.29 992 10 16 N/A
6:53 pm 18:53 Clear 54 12.2 29 -1.7 38 38 SSW 37 59 29.22 990 10 16 N/A
7:53 pm 19:53 Clear 53 11.7 30 -1.1 41 41 SSW 26 43 29.17 988 10 16 N/A
8:53 pm 20:53 Clear 53 11.7 30 -1.1 41 41 SSW 29 46 29.10 985 10 16 N/A
9:53 pm 21:53 Clear 52 11.1 30 -1.1 43 43 SW 28 44 29.06 984 10 16 N/A
10:53 pm 22:53 Clear 53 11.7 30 -1.1 41 41 SW 36 57 29.01 983 10 16 N/A
11:53 pm 23:53 Clear 53 11.7 32 undefined 45 45 SW 36 57 29.00 982 10 16 N/A

Powered by AerisWeather